Flag for United Kingdom

Past Weather in Sheffield, England, United Kingdom — Yesterday and Last 2 Weeks

Now
48 °F

Passing clouds.


Feels Like: 44 °F
Forecast: 55 / 44 °F
Wind: 9 mph from Northeast

Location: Manchester Airport
Current Time: Sep 24, 2020 at 10:03:44 pm
Latest Report: Sep 24, 2020 at 9:20 pm
Visibility: N/A
Pressure29.39 "Hg
Humidity: 76%
Dew Point: 41 °F
Location of SheffieldLocation

Past Weather in Sheffield — Graph

°F

Sheffield Temperature Yesterday

Maximum temperature yesterday: 59 °F (at 12:20 am)
Minimum temperature yesterday: 48 °F (at 11:20 pm)
Average temperature yesterday: 55 °F

High & Low Weather Summary for the Past Weeks

 TemperatureHumidityPressure
High81 °F (Sep 15, 2:50 pm)100% (Sep 10, 5:20 am)30.48 "Hg (Sep 10, 5:20 am)
Low43 °F (Sep 20, 6:20 am)44% (Sep 14, 4:20 pm)29.30 "Hg (Sep 24, 7:20 am)
Average58 °F78%30.05 "Hg
* Reported Sep 9 8:20 pm — Sep 24 8:50 pm, Sheffield. Weather by CustomWeather, © 2020

Note: Actual official high and low records may vary slightly from our data, if they occured in-between our weather recording intervals... More about our weather records

Sheffield Weather History for the Previous 24 Hours

Scroll right to see more
 ConditionsComfort  
Time TempWeatherWind HumidityBarometerVisibility
8:50 pm
Thu, Sep 24
48 °FCool.7 mph82%29.39 "HgN/A
8:20 pm48 °FCool.6 mph76%29.36 "HgN/A
7:50 pm50 °FCool.5 mph71%29.36 "HgN/A
7:20 pm50 °FCool.3 mph71%29.36 "HgN/A
6:50 pm50 °FCool.5 mph71%29.33 "HgN/A
6:20 pm52 °FCool.2 mph67%29.33 "HgN/A
5:50 pm52 °FCool.7 mph67%29.33 "HgN/A
5:20 pm52 °FPassing clouds.3 mph62%29.33 "HgN/A
4:50 pm54 °FCool.3 mph54%29.33 "HgN/A
4:20 pm55 °FRefreshingly cool.6 mph55%29.30 "HgN/A
3:50 pm55 °FBroken clouds.6 mph55%29.30 "HgN/A
3:20 pm54 °FBroken clouds.7 mph63%29.30 "HgN/A
2:50 pm55 °FScattered clouds.7 mph55%29.30 "HgN/A
2:20 pm57 °FPartly sunny.7 mph55%29.30 "HgN/A
1:50 pm55 °FPassing clouds.9 mph59%29.30 "HgN/A
1:20 pm55 °FScattered clouds.9 mph59%29.30 "HgN/A
12:50 pm55 °FBroken clouds.9 mph63%29.30 "HgN/A
12:20 pm55 °FScattered clouds.9 mph63%29.30 "HgN/A
11:50 am54 °FBroken clouds.9 mph72%29.30 "HgN/A
11:20 am54 °FBroken clouds.9 mph72%29.30 "HgN/A
10:50 am54 °FBroken clouds.9 mph72%29.30 "HgN/A
10:20 am52 °FPassing clouds.7 mph82%29.30 "HgN/A
9:50 am50 °FPassing clouds.6 mph88%29.30 "HgN/A
9:20 am50 °FScattered clouds.5 mph88%29.30 "HgN/A
8:20 am46 °FScattered clouds.3 mph93%29.30 "HgN/A
7:50 am46 °FLight rain. Mostly cloudy.3 mph93%29.30 "HgN/A
7:20 am46 °FLight rain. Partly sunny.3 mph93%29.30 "HgN/A
6:50 am46 °FLight rain. Partly cloudy.2 mph93%29.33 "Hg4 mi
6:20 am46 °FLight rain. Passing clouds.3 mph87%29.33 "HgN/A
5:50 am45 °FPassing clouds.3 mph87%29.33 "HgN/A
5:20 am45 °FPassing clouds.2 mph87%29.36 "HgN/A
4:50 am45 °FPassing clouds.3 mph87%29.36 "HgN/A
4:20 am45 °FQuite cool.2 mph87%29.39 "HgN/A
3:50 am43 °FQuite cool.3 mph93%29.39 "HgN/A
3:20 am43 °FQuite cool.2 mph93%29.39 "HgN/A
2:20 am46 °FPassing clouds.3 mph87%29.42 "HgN/A
1:50 am46 °FPartly cloudy.2 mph93%29.42 "HgN/A
1:20 am46 °FPassing clouds.5 mph100%29.42 "HgN/A
12:50 am48 °FPassing clouds.5 mph94%29.42 "HgN/A
12:20 am48 °FPassing clouds.7 mph94%29.42 "HgN/A
11:50 pm
Wed, Sep 23
48 °FPassing clouds.7 mph100%29.42 "HgN/A
11:20 pm48 °FPartly cloudy.6 mph94%29.42 "HgN/A
10:50 pm50 °FPassing clouds.6 mph94%29.42 "HgN/A
10:20 pm50 °FPartly cloudy.3 mph94%29.42 "HgN/A
Weather by CustomWeather, © 2020

See weather overview